www.pogodaiklimat.ru

Погода и климат >> Архив погоды >> Россия >> Чукотка >> Айон Остров


ПОГОДА на Айон Острове

  • Прогноз погоды на Айон Острове
  • Монитор погоды на Айон Острове

АРХИВ ПОГОДЫ на Айон Острове

Время (UTC), дата Ветер
(напр.,м/с)
 
Видим.   Явления Облачность Т
(С)
Тd
(С)
f
(%)
Тe
(С)
Тes
(С)
Комфортность P
(гПа)
Po
(гПа)
Тmin
(С)
Tmax
(С)
R
(мм)
R24
(мм)
S
(см)
06 17.02 З 6-7
{7}
4000 м слаб. снег {метель} 10/0
[As op]
-18.8 -20.3 88 -29 -29 990.8 989.0
09 17.02 З 10-13
{14}
4000 м слаб. снег {метель} 10/0
[As op]
-20.1 -21.7 87 -34 -34 опасность
обморожения
992.6 990.8 -18.3 0.5
12 17.02 З 10-12
{16}
1000 м слаб. снег {метель} 10/0
[As op]
-22.4 -24.4 84 -37 -37 опасность
обморожения
995.8 994.0
15 17.02 З 10-13
{15}
1000 м метель {снег} 10/0
[As op]
-23.9 -26.0 83 -39 -39 опасность
обморожения
997.8 995.9
18 17.02 З 13-16
{16}
1000 м метель {снег} 10/0
[As op]
-24.0 -26.1 83 -40 -40 опасность
обморожения
999.4 997.5
21 17.02 З 9-11
{17}
4000 м метель 8/0
[Ac trans]
-24.9 -27.1 82 -39 -39 опасность
обморожения
1001.7 999.8 -24.9 0.6 14
00 18.02 З 10-13
{13}
4000 м метель 10/0
[Ac und]
-24.7 -26.8 83 -40 -40 опасность
обморожения
1003.3 1001.4
03 18.02 З 9-12
{14}
4000 м метель 9/0
[Ac trans Ci fib]
-25.4 -27.7 81 -40 -40 опасность
обморожения
1004.2 1002.3
06 18.02 З 9-11
{13}
4000 м метель 9/0
[Ac trans Ci fib]
-26.3 -28.7 80 -41 -41 опасность
обморожения
1006.1 1004.2
09 18.02 З 9-12
{13}
4000 м метель 10/0
[Ac und]
-26.5 -28.9 80 -42 -42 опасность
обморожения
1007.6 1005.7 -24.4
12 18.02 З 8-10
{12}
10 км позёмок 10/0
[Ac und]
-27.1 -29.6 79 -42 -42 опасность
обморожения
1009.7 1007.8
15 18.02 З 6-8
{10}
20 км позёмок 8/0
[Ac trans]
-28.8 -31.4 78 -42 -42 опасность
обморожения
1011.3 1009.4
18 18.02 З 4-5
{9}
20 км {метель} 6/0
[Ac trans]
-28.9 -31.5 78 -40 -40 опасность
обморожения
1012.8 1010.9
21 18.02 З 5-6
{8}
20 км позёмок 3/0
[Ac trans]
-29.5 -32.2 77 -42 -42 опасность
обморожения
1014.4 1012.5 -29.8 14
00 19.02 З 6-7
{9}
20 км позёмок 4/0
[Ac trans Ci fib]
-28.6 -31.3 77 -42 -42 опасность
обморожения
1015.7 1013.8
03 19.02 З 5-5
{7}
20 км позёмок 3/0
[Ac trans]
-28.9 -31.6 77 -41 -41 опасность
обморожения
1015.8 1013.9
06 19.02 З 3-3
{5}
20 км {метель} 8/0
[Ac trans]
-29.1 -31.9 77 -39 -39 опасность
обморожения
1016.0 1014.1
09 19.02 СЗ 3-4
{4}
4000 м слаб. снег 10/0
[As op]
-27.5 -29.9 80 -37 -37 опасность
обморожения
1016.8 1014.9 -27.5 0.8
12 19.02 СЗ 3-4
{4}
4000 м слаб. снег 10/0
[As op]
-26.5 -29.0 79 -35 -35 опасность
обморожения
1017.9 1016.0
15 19.02 З 3-4
{5}
4000 м слаб. снег 10/0
[As op]
-26.5 -29.0 79 -35 -35 опасность
обморожения
1018.8 1016.9
18 19.02 З 4-4
{5}
4000 м слаб. снег 10/0
[As op]
-26.8 -29.3 79 -37 -37 опасность
обморожения
1019.7 1017.8
21 19.02 З 3-4
{5}
20 км {снег} 6/0
[Ac trans]
-28.5 -31.1 78 -38 -38 опасность
обморожения
1020.5 1018.5 -28.5 1 14
00 20.02 З 3-4
{4}
20 км {снег} 8/0
[Ac trans Ci fib]
-31.5 -34.4 75 -41 -41 опасность
обморожения
1020.5 1018.5 -31.5
03 20.02 З 4-5
{6}
20 км 10/0
[Ac trans Ci fib]
-31.3 -34.3 75 -43 -43 опасность
обморожения
1019.0 1017.0
06 20.02 СЗ 4-5
{6}
20 км 10/0
[Ac und]
-29.6 -32.4 77 -41 -41 опасность
обморожения
1019.2 1017.2
09 20.02 З 5-6
{7}
20 км позёмок 10/0
[As op]
-30.0 -33.0 75 -43 -43 опасность
обморожения
1019.9 1017.9 -28.5
12 20.02 З 3-4
{6}
20 км {метель} 10/0
[As op]
-28.9 -31.7 77 -38 -38 опасность
обморожения
1020.5 1018.5
15 20.02 З 3-4
{4}
20 км 10/0
[As op]
-27.9 -30.6 78 -37 -37 опасность
обморожения
1020.7 1018.7
18 20.02 З 3-3
{4}
20 км 10/0
[As op]
-27.4 -29.9 79 -36 -36 опасность
обморожения
1021.1 1019.2
21 20.02 З 2-3
{3}
20 км 10/0
[Ac und]
-27.1 -29.6 79 -34 -34 опасность
обморожения
1021.6 1019.7 -30.0 13
00 21.02 З 2-2
{3}
20 км 8/0
[Ac trans Ci fib]
-27.5 -30.0 79 -35 -34 опасность
обморожения
1021.7 1019.7
03 21.02 ЮЗ 1-2
{2}
20 км 4/0
[Ac trans Ci fib]
-29.8 -32.6 76 -34 -34 опасность
обморожения
1021.7 1019.7
06 21.02 З 2-3
{5}
20 км 10/0
[Ac und]
-27.5 -30.0 79 -35 -35 опасность
обморожения
1021.7 1019.7
09 21.02 З 2-2
{3}
20 км 6/0
[Ac trans]
-28.3 -31.0 78 -36 -36 опасность
обморожения
1022.0 1020.0 -27.0
12 21.02 З 2-3
{3}
20 км 10/0
[Ac und]
-26.0 -28.4 80 -33 -33 опасность
обморожения
1021.3 1019.4
15 21.02 З 2-2
{3}
20 км 10/0
[Ac und]
-25.1 -27.5 80 -32 -32 опасность
обморожения
1020.0 1018.1
18 21.02 З 2-3
{3}
20 км 8/0
[Ac trans]
-26.8 -29.2 80 -34 -34 опасность
обморожения
1018.8 1016.9
21 21.02 В 1-2
{3}
20 км 3/0
[Ac trans]
-28.5 -31.2 77 -32 -32 опасность
обморожения
1017.2 1015.3 -29.2 13
00 22.02 ЮЗ 2-2
{3}
20 км 3/0
[Ac trans Ci fib]
-29.4 -32.1 77 -37 -36 опасность
обморожения
1015.5 1013.6 -29.6
03 22.02 Ю 4-4
{5}
20 км 8/0
[Ac trans]
-30.5 -33.4 76 -42 -42 опасность
обморожения
1013.3 1011.4
06 22.02 Ю 4-5
{6}
20 км 4/0
[Ac trans]
-31.7 -34.8 74 -43 -43 опасность
обморожения
1011.5 1004.6
09 22.02 В 1-1
{5}
20 км 3/0
[Ac trans]
-33.7 -36.7 74 -38 -38 опасность
обморожения
1009.9 1007.9 -28.3
12 22.02 ЮЗ 2-2
{3}
4000 м слаб. снег 10/0
[As op]
-29.0 -31.3 80 -36 -36 опасность
обморожения
1008.4 1006.5
15 22.02 З 2-3
{3}
4000 м слаб. снег 10/0
[As op]
-28.5 -30.8 80 -36 -36 опасность
обморожения
1006.8 1004.9
18 22.02 З 4-5
{6}
4000 м слаб. снег 10/0
[As op]
-27.5 -29.9 80 -38 -38 опасность
обморожения
1005.5 1003.6
21 22.02 З 6-7
{7}
20 км позёмок {снег} 10/0
[As op]
-26.9 -29.3 80 -40 -40 опасность
обморожения
1004.9 1003.0 -33.7 0.8 13
00 23.02 З 8-9
{10}
20 км позёмок {снег} 10/0
[Ac und]
-26.8 -29.2 80 -41 -41 опасность
обморожения
1004.9 1003.0
03 23.02 З 8-9
{10}
10 км позёмок 10/0
[Ac und]
-26.8 -29.2 80 -41 -41 опасность
обморожения
1004.8 1002.9
06 23.02 З 7-9
{10}
10 км позёмок 10/0
[Ac und]
-27.1 -29.6 79 -41 -41 опасность
обморожения
1005.8 1003.9
09 23.02 З 7-9
{11}
10 км позёмок 10/0
[Ac und]
-27.1 -29.6 79 -41 -41 опасность
обморожения
1007.2 1005.3 -26.6
12 23.02 З 6-8
{9}
20 км позёмок 4/0
[Ac trans]
-29.5 -32.2 77 -43 -43 опасность
обморожения
1008.7 1006.8
15 23.02 З 6-7
{8}
20 км позёмок ясно -30.5 -33.3 76 -44 -44 опасность
обморожения
1009.9 1008.0
18 23.02 З 4-5
{8}
20 км {метель} ясно -30.7 -33.7 75 -42 -42 опасность
обморожения
1010.9 1009.0
21 23.02 З 4-5
{6}
20 км 8/0
[Ac trans]
-29.8 -32.6 76 -41 -41 опасность
обморожения
1011.2 1009.3 -31.2 13
00 24.02 СЗ 4-6
{6}
20 км 10/0
[Ac und]
-29.6 -32.3 77 -41 -41 опасность
обморожения
1011.1 1009.2
03 24.02 З 4-5
{6}
20 км 10/0
[Ac und]
-27.8 -30.3 79 -39 -38 опасность
обморожения
1009.9 1008.0

 

Местоположение метеостанции Айон Остров (Чукотка, Россия): широта 69.93 долгота 167.90 высота над уровнем моря 14 м.

В архиве по умолчанию представлена погода на Айон Острове за последнюю неделю. Архивные данные за месяц целиком и за предыдущие месяцы, начиная с января 2011 года, Вы можете получить, выбрав интересующий диапазон дат из раскрывающегося списка и нажав кнопку "Ввод!".


*Определитесь, кто Вы:
робот инопланетянин человек

Внимание! Время в таблицах - всемирное. Для получения местного времени необходимо прибавить поправку, которая равна 12 ч.

Смотрите также архив погоды в соседних городах и на ближайших метеорологических станциях:

Погода в Раучуе (Чукотка, Россия) (72 км)
Погода в Певеке (Чукотка, Россия) (92 км)
Погода в Валькаркае (Чукотка, Россия) (115 км)
Погода на 21 км (Чукотка, Россия) (117 км)
Погода в Чауне (Чукотка, Россия) (160 км)
Погода в Комсомольской (Чукотка, Россия) (211 км)
Погода в Билибино (Чукотка, Россия) (217 км)
Погода в Бухте Амбарчик (Чукотка, Россия) (218 км)
Погода в Островном (Чукотка, Россия) (252 км)
Погода в Паляваам-Глубокой (Чукотка, Россия) (257 км)

Пояснения к столбцам:

Ветер - указаны скорость ветра в м/с - средняя за 10 мин, порывы в срок и между сроками (в фигурных скобках) и направление, откуда дует ветер: С - северный, СВ - северо-восточный, В - восточный, ЮВ - юго-восточный, Ю - южный, ЮЗ - юго-западный, З - западный, СЗ - северо-западный.
Видимость - горизонтальная дальность видимости в метрах или километрах. При видимости от 1 до 10 км при отсутствии осадков обычно наблюдается дымка, при ухудшении видимости до 1 км и менее - туман. В сухую погоду видимость может ухудшаться дымом, пылью или мглою.
Явления - указаны атмосферные явления, наблюдавшиеся в срок или в последний час перед сроком; фигурными скобками обозначены явления, наблюдавшиеся между сроками (за 1-3 часа до срока); квадратными скобками обозначены град или гололедные отложения с указанием их диаметра в мм.
Облачность - указаны через наклонную черту общая и нижняя облачность в баллах и высота нижней границы облаков в метрах; квадратными скобками обозначены формы облаков: Ci - перистые, Cs - перисто-слоистые, Cc - перисто-кучевые, Ac - высококучевые, As - высокослоистые, Sc - слоисто-кучевые, Ns - слоисто-дождевые, Cu - кучевые, Cb - кучево-дождевые. Подробнее классификацию облаков см. в Атласе облаков (PDF).
T - Температура воздуха - температура, измеренная на высоте 2 м над землей.
Td - Температура точки росы - температура, при понижении до которой содержащийся в воздухе водяной пар достигнет насыщения.
f - Относительная влажность воздуха - влажноcть воздуха, измеренная на высоте 2 м над землей.
Te - Эффективная температура - температура, которую ощущает одетый по сезону человек в тени. Характеристика душности погоды. При расчете учитывается влияние влажности воздуха и скорости ветра на теплоощущения человека.
Tes - Эффективная температура на солнце - температура, которую ощущает человек, с поправкой на солнечный нагрев. Характеристика знойности погоды. Зависит от высоты солнца над горизонтом, облачности и скорости ветра. Ночью, в пасмурную погоду, а также при ветре 12 м/с и более поправка равна нулю.
P - Атмосферное давление - приведенное к уровню моря атмосферное давление.
Po - Атмосферное давление - измеренное на уровне метеостанции атмосферное давление.
Tmin - Минимальная температура - минимум температуры воздуха на высоте 2 м над землей.
Tmax - Максимальная температура - максимум температуры воздуха на высоте 2 м над землей.
R - Количество осадков - Количество выпавших осадков за период времени, мм. При наведении курсора мыши на число - период времени, за который выпало указанное количество осадков.
R24 - Количество осадков - Количество выпавших осадков за 24 часа, мм.
S - Снежный покров - Высота снежного покрова, см. При наведении курсора мыши на число - состояние снежного покрова и степень покрытия местности в баллах.